TimeEST,TemperatureF,Dew PointF,Humidity,Sea Level PressureIn,VisibilityMPH,Wind Direction,Wind SpeedMPH,Gust SpeedMPH,PrecipitationIn,Events,Conditions,WindDirDegrees,DateUTC
12:53 AM,28.9,24.1,82,30.22,10.0,Calm,Calm,-,N/A,,Mostly Cloudy,0,2013-01-06 05:53:00
1:53 AM,28.9,26.1,89,30.21,8.0,Calm,Calm,-,N/A,,Overcast,0,2013-01-06 06:53:00
2:53 AM,30.0,25.0,82,30.18,8.0,Calm,Calm,-,N/A,,Overcast,0,2013-01-06 07:53:00
3:53 AM,30.0,27.0,88,30.16,5.0,Calm,Calm,-,0.00,Snow,Light Snow,0,2013-01-06 08:53:00
4:53 AM,30.9,27.0,85,30.12,6.0,Calm,Calm,-,0.00,,Overcast,0,2013-01-06 09:53:00
5:00 AM,30.2,26.6,86,30.11,6.0,Calm,Calm,-,N/A,,Overcast,0,2013-01-06 10:00:00
5:39 AM,32.0,28.4,87,30.11,6.0,Calm,Calm,-,N/A,,Overcast,0,2013-01-06 10:39:00
5:53 AM,32.0,28.0,85,30.12,6.0,Calm,Calm,-,N/A,,Overcast,0,2013-01-06 10:53:00
6:53 AM,32.0,28.0,85,30.12,6.0,Calm,Calm,-,N/A,,Overcast,0,2013-01-06 11:53:00
7:31 AM,32.0,28.4,87,30.11,5.0,Calm,Calm,-,N/A,,Overcast,0,2013-01-06 12:31:00
7:53 AM,32.0,28.9,88,30.12,4.0,Calm,Calm,-,N/A,,Overcast,0,2013-01-06 12:53:00
8:02 AM,32.0,28.4,87,30.10,4.0,South,3.5,-,N/A,,Overcast,170,2013-01-06 13:02:00
8:23 AM,33.8,28.4,81,30.10,4.0,Variable,3.5,-,N/A,,Overcast,0,2013-01-06 13:23:00
8:53 AM,35.1,30.9,85,30.11,4.0,SSW,3.5,-,N/A,,Overcast,200,2013-01-06 13:53:00
9:53 AM,37.9,30.9,76,30.11,6.0,Calm,Calm,-,N/A,,Haze,0,2013-01-06 14:53:00
10:53 AM,41.0,30.0,65,30.08,8.0,Variable,4.6,-,N/A,,Mostly Cloudy,0,2013-01-06 15:53:00
11:53 AM,44.1,28.0,53,30.04,10.0,Variable,4.6,-,N/A,,Clear,0,2013-01-06 16:53:00
12:53 PM,45.0,27.0,49,30.01,10.0,Variable,4.6,-,N/A,,Clear,0,2013-01-06 17:53:00
1:53 PM,46.9,26.1,44,29.97,10.0,Variable,5.8,-,N/A,,Clear,0,2013-01-06 18:53:00
2:53 PM,46.9,25.0,42,29.98,10.0,Variable,4.6,-,N/A,,Clear,0,2013-01-06 19:53:00
3:53 PM,46.0,26.1,46,29.98,10.0,Variable,5.8,-,N/A,,Overcast,0,2013-01-06 20:53:00
4:53 PM,44.1,25.0,47,29.99,10.0,Variable,3.5,-,N/A,,Mostly Cloudy,0,2013-01-06 21:53:00
5:53 PM,43.0,25.0,49,30.00,10.0,Calm,Calm,-,N/A,,Overcast,0,2013-01-06 22:53:00
6:53 PM,43.0,26.1,51,30.02,10.0,Calm,Calm,-,N/A,,Overcast,0,2013-01-06 23:53:00
7:53 PM,43.0,27.0,53,30.02,10.0,WNW,3.5,-,N/A,,Overcast,290,2013-01-07 00:53:00
8:53 PM,42.1,27.0,55,30.02,10.0,Calm,Calm,-,N/A,,Overcast,0,2013-01-07 01:53:00
9:53 PM,41.0,27.0,57,30.03,10.0,Calm,Calm,-,N/A,,Overcast,0,2013-01-07 02:53:00
10:53 PM,37.9,27.0,65,30.04,10.0,Calm,Calm,-,N/A,,Partly Cloudy,0,2013-01-07 03:53:00
11:53 PM,39.9,27.0,60,30.06,10.0,WNW,4.6,-,N/A,,Clear,290,2013-01-07 04:53:00